User: anonymous   Login
Location: Columbia
(38.9520°N, 92.3340°W)
Time: 05:15:02
(UTC-05:00)
Language:

Cosmos 2100 Rocket - Orbit

View from above orbital plane
View from above orbital plane
View from above satellite
View from above satellite

Ground track
Ground track

The orbit data is extracted from the following two-line orbital elements,

1 20805U 90083B   16270.58448256 -.00000051  00000-0 -68926-4 0  9996
2 20805  82.9338 256.6396 0031765  51.7499  83.1937 13.75802605307158
Epoch (UTC): 26 September 2016 14:01:39
Eccentricity: 0.0031765
inclination: 82.9338°
perigee height: 955 km
apogee height: 1002 km
right ascension of ascending node: 256.6396°
argument of perigee: 51.7499°
revolutions per day: 13.75802605
mean anomaly at epoch: 83.1937°
orbit number at epoch: 30715

The dashed part of the orbit path shows where the satellite is in the earth's shadow,  

DLR